Showing default

CARTOSAT 2E, 42767

Orbit data source: Space-Track

CARTOSAT 2E, 42767 is a payload satellite owned by ISRO (IN) in SSO that was launched on Fri, 23 Jun 2017 UTC via a PSLV-XL launch vehicle from the Sirharikota (SRI). Payload-class satellites include a variety of spacecraft equipped with specific instruments for various scientific and technological missions. These include communications satellites like Starlink; space stations such as the ISS; scientific satellites like the Hubble; Earth observation satellites from companies like Planet Labs, Umbra, and HawkEye 360; GPS; miniature CubeSats for education and research; and military/defense satellites.

Loading next visibility...
Identifier
42767, 2017-036C
Orbit
SSO
Last TLE update
9 hours ago
Origin
Manufacturer
ISRO
Mission
Operational Civil Imaging
Bus & Motor
IRS-2, AOCS
Mass
712 kg wet, 639 kg dry
Launch date (UTC)
2017-06-23 (8 years ago)
Launch vehicle
PSLV-XL
Launch site
Sirharikota (SRI)
Object type
Payload
Rocket body
Debris
Shape & HBR
Hex Cyl + 2 Pan, 8 m
Radar Cross Section
9.780 m², Large (>1 m²)

Expand to show TLE details & history

TLE from 9 hours ago
0 CARTOSAT 2E
1 42767U 17036C   25128.90109473  .00006230  00000-0  29960-3 0  9994
2 42767  97.4810 188.8876 0002222 263.8877  96.2104 15.19155140436762
Epoch: 2025-05-08T21:37Z
Definitive object data (Epoch: 2025-05-08T21:37:34.584Z)
Latitude
-0.00007°
Longitude
-2.47144°
Altitude
511.646 km
Speed
7.608 km/s
True Right ascension
12h 35m 33s
True Declination
0° 00' 00"
Sunlit
Object was in full shadow at TLE epoch
Visualization TLE readout
Latitude
35.79258°
Longitude
-176.71626°
Altitude
514.038 km
Speed
7.61 km/s
Apparent Right ascension
01h 35m 51s
Apparent Declination
0° 20' 10"
Sunlit
Object is in daylight
Visualization observer readout
Local Sidereal Time
14:18:30
Azimuth
16.466° NNE
Elevation
-49.243°
Doppler factor
1
Orbital elements
Apogee altitude
506.892 km
Perigee altitude
503.833 km
Semi-major axis
6,883.5 km
Eccentricity
0.0002222
Inclination
97.481°
RAAN
188.8876°
Arg. of periapsis
263.8877°
True anomaly
96.23571°
Mean anomaly
96.2104°
Eccentric anomaly
96.22306°
Mean motion
3.8004 °/min
BSTAR
0.0002996
Orbital period
94.73 mins
Loading maneuver chart data...
Loading SW <> Apogee altitude chart data...
Loading historical data...
Loading historical data...
Loading historical data...
Loading historical data...
Loading historical data...
Loading historical data...
Loading historical data...

CARTOSAT 2E Visibility forecast

Observer location: undefined°, undefined°

Span
Click to sort rows by Start time (UTC) header in descending order
Start Az.
Max El. time (UTC)
Max El. Az.
Max El.
End time (UTC)
End Az.
6 mins2025-05-09 17:09:43.608Z355.64° N2025-05-09 17:12:43.608Z261.929° W35.965°2025-05-09 17:15:43.608Z211.122° SW
5 mins2025-05-10 03:48:43.608Z145.64° SSE2025-05-10 03:50:43.608Z52.125° ENE40.42°2025-05-10 03:53:43.608Z356.505° N
|